Location: Unnamed
(47.6578°N, 23.5640°E)
Time: 21:31:29
(UTC+02:00)

ISS - Pass Details

Date: 05 May 2020
Orbit: 417 x 423 km, 51.6° (Epoch: 01 December)

Event Time Altitude Azimuth Distance (km) Brightness Sun altitude
Exits shadow 03:22:58 76° 304° (NW) 463 -3.7 -20.6°
Maximum altitude 03:23:06 78° 338° (NNW) 459 -3.6 -20.5°
Drops below altitude 10° 03:26:40 10° 65° (ENE) 1,580 0.0 -20.2°
Enters shadow 04:22:56 -69° 257° (WSW) 12,343 3.6 -14.4°
